Date,TemperatureHighF,TemperatureAvgF,TemperatureLowF,DewpointHighF,DewpointAvgF,DewpointLowF,HumidityHigh,HumidityAvg,HumidityLow,PressureMaxIn,PressureMinIn,WindSpeedMaxMPH,WindSpeedAvgMPH,GustSpeedMaxMPH,PrecipitationSumIn
2013-8-1,76.1,64.4,52.5,66.0,59.4,51.1,97,85,56,29.96,29.81,12,1,13,0.00
2013-8-2,68.4,64.2,61.0,65.4,62.9,59.9,98,96,90,29.81,29.67,7,0,7,0.32
2013-8-3,73.9,63.8,55.3,64.8,60.4,53.9,99,89,65,29.73,29.61,12,1,12,0.03
2013-8-4,77.0,63.9,53.1,62.6,56.8,52.1,98,80,51,29.69,29.61,18,1,18,0.02
2013-8-5,72.1,61.5,48.8,56.9,52.3,47.2,95,74,51,29.90,29.68,19,3,19,0.00
2013-8-6,76.3,60.2,43.9,58.2,50.8,43.0,98,74,46,30.05,29.90,13,1,13,0.00
2013-8-7,73.9,61.2,46.8,61.2,54.4,46.0,98,80,54,30.11,30.05,8,1,8,0.00
2013-8-8,65.3,61.9,56.7,63.4,60.5,55.6,97,95,91,30.05,29.95,11,1,11,0.24
2013-8-9,68.4,65.5,63.9,67.5,64.4,62.7,98,97,95,29.95,29.61,19,1,19,2.00
2013-8-10,79.2,69.2,52.6,69.4,58.5,49.3,97,73,38,29.86,29.61,17,2,17,0.01
2013-8-11,77.4,62.2,48.0,58.8,52.7,46.3,98,75,43,29.92,29.83,16,1,16,0.00
2013-8-12,78.5,63.7,51.7,61.3,56.3,50.6,97,79,49,29.89,29.78,12,1,12,0.00
2013-8-13,71.5,63.2,51.4,65.5,60.5,50.6,99,91,80,29.82,29.61,8,0,8,0.00
2013-8-14,72.3,64.2,58.0,66.2,60.0,48.4,99,87,61,29.73,29.50,19,1,19,0.18
2013-8-15,76.0,61.5,45.5,57.4,51.9,43.5,97,73,42,29.97,29.73,17,2,17,0.00
2013-8-16,74.9,61.6,47.7,61.1,54.1,46.8,98,79,48,30.09,29.97,12,1,12,0.00
2013-8-17,77.0,62.1,47.7,60.2,53.0,46.9,98,76,41,30.16,30.09,14,1,14,0.00
2013-8-18,74.9,61.1,46.2,59.8,54.3,45.4,98,81,44,30.17,29.94,11,1,11,0.00
2013-8-19,82.8,66.3,49.8,68.6,58.9,49.3,98,80,49,29.94,29.75,15,1,15,0.00
2013-8-20,81.8,67.5,55.9,66.6,61.0,55.3,98,82,56,29.96,29.82,11,1,11,0.00
2013-8-21,81.8,67.8,54.5,67.6,60.8,53.7,98,80,54,30.02,29.88,14,1,14,0.00
2013-8-22,82.0,69.0,55.7,67.7,62.5,54.6,98,82,56,29.88,29.64,11,1,11,0.00
2013-8-23,76.5,65.5,50.7,65.2,56.6,48.7,97,76,42,30.04,29.65,19,3,19,0.06
2013-8-24,76.7,61.7,44.3,55.9,47.6,-99.9,97,66,32,30.20,30.04,17,2,17,0.00
2013-8-25,76.8,59.9,43.2,56.5,50.2,42.4,98,75,35,30.25,30.06,12,1,12,0.00
2013-8-26,73.9,62.8,52.9,64.1,59.3,51.8,97,89,71,30.06,29.76,9,1,9,0.01
2013-8-27,82.6,67.8,55.3,67.0,61.9,54.3,98,83,54,29.80,29.73,8,1,8,0.00
2013-8-28,77.9,67.1,58.9,66.7,63.0,58.1,97,88,65,29.91,29.78,13,1,13,0.16
2013-8-29,66.9,61.0,49.4,63.4,57.4,48.4,97,88,72,30.02,29.91,11,1,13,0.00
2013-8-30,71.1,60.1,47.0,62.3,55.6,46.0,98,86,64,29.92,29.67,13,1,13,0.00
2013-8-31,79.2,68.3,62.0,69.5,64.8,60.8,98,89,68,29.74,29.67,9,0,9,0.26